G6UYG-13 Weather Reports


time (UTC)temp
F
wind
direction
speed
knots
gust
knots
rain 1hr
in
rain 24hr
in
rain mn
in
humidity
%
barometer
mb
20260506011032 47 110 0.9 3.5 0.00 0.00 0.00 76 1013.3
20260506010332 47 84 1.7 3.5 0.00 0.00 0.00 76 1013.3
20260506005632 47 92 0.9 5.2 0.00 0.00 0.00 76 1013.3
20260506004932 47 79 0.0 0.0 0.00 0.00 0.00 77 1013.3
20260506004232 47 82 0.0 0.0 0.00 0.00 0.00 78 1013.3
20260506003532 47 80 0.0 0.0 0.00 0.00 0.00 79 1013.4
20260506002832 47 86 0.0 0.0 0.00 0.00 0.00 80 1013.4
20260506002132 48 86 0.0 0.0 0.00 0.00 0.00 80 1013.3
20260506001432 48 94 0.0 0.0 0.00 0.00 0.00 81 1013.3
20260506000732 48 90 0.0 0.0 0.00 0.00 0.00 82 1013.2
20260506000032 48 90 0.0 0.0 0.00 0.00 0.00 83 1013.2
20260505235332 48 90 0.0 0.0 0.00 0.00 0.00 83 1013.1
20260505234632 48 89 0.0 0.0 0.00 0.00 0.00 84 1013.1
20260505233932 48 96 1.7 3.5 0.00 0.00 0.00 84 1013.1
20260505233232 48 112 0.0 2.6 0.00 0.00 0.00 84 1013.1
20260505232532 48 355 0.0 0.0 0.00 0.00 0.00 83 1013.1
20260505231832 48 313 0.0 0.0 0.00 0.00 0.00 83 1013.1
20260505231132 48 313 0.0 0.0 0.00 0.00 0.00 83 1013.1
20260505230432 48 312 0.0 0.0 0.00 0.00 0.00 83 1013.2
20260505225732 48 311 0.0 0.0 0.00 0.00 0.00 83 1013.1
20260505225032 48 309 0.0 0.9 0.00 0.00 0.00 83 1013.0
20260505224332 48 306 0.0 0.0 0.00 0.00 0.00 83 1013.1
20260505223632 48 305 0.0 0.0 0.00 0.00 0.00 82 1013.1
20260505222932 48 305 0.0 0.0 0.00 0.00 0.00 82 1013.1
20260505222232 48 306 0.0 1.7 0.00 0.00 0.00 82 1013.1
20260505221532 48 315 0.0 1.7 0.00 0.00 0.00 81 1013.1
20260505220833 48 315 0.0 0.9 0.00 0.00 0.00 82 1013.1
20260505220133 48 315 0.0 0.0 0.00 0.00 0.00 81 1013.1
20260505215433 48 315 0.0 1.7 0.00 0.00 0.00 81 1013.0
20260505214733 48 330 0.0 0.0 0.00 0.00 0.00 81 1013.1
20260505214033 48 330 0.0 0.0 0.00 0.00 0.00 80 1013.0
20260505213333 48 330 0.0 0.0 0.00 0.00 0.00 80 1013.0
20260505212633 49 0 0.0 0.9 0.00 0.00 0.00 80 1013.0
20260505211933 49 0 0.0 1.7 0.00 0.00 0.00 79 1013.0
20260505211233 49 5 0.0 1.7 0.00 0.00 0.00 79 1012.9
20260505210533 49 5 0.0 2.6 0.00 0.00 0.00 78 1012.9
20260505205833 49 355 0.0 1.7 0.00 0.00 0.00 78 1012.9
20260505205133 49 324 0.0 3.5 0.00 0.00 0.00 77 1012.9
20260505204433 49 346 0.0 0.0 0.00 0.00 0.00 77 1013.0
20260505203733 49 67 0.9 1.7 0.00 0.00 0.00 76 1012.8
20260505203033 50 49 0.0 0.9 0.00 0.00 0.00 75 1012.8
20260505202333 50 43 0.9 2.6 0.00 0.00 0.00 75 1012.8
20260505201633 50 68 0.9 4.3 0.00 0.00 0.00 75 1012.8
20260505200933 50 47 1.7 3.5 0.00 0.00 0.00 74 1012.8
20260505200233 51 47 0.9 4.3 0.00 0.00 0.00 74 1012.7
20260505195533 51 44 1.7 2.6 0.00 0.00 0.00 74 1012.7
20260505194833 51 34 1.7 6.1 0.00 0.00 0.00 73 1012.7
20260505194133 51 63 1.7 1.7 0.00 0.00 0.00 73 1012.5
20260505193433 51 56 1.7 6.1 0.00 0.00 0.00 73 1012.5
20260505192733 52 45 1.7 4.3 0.00 0.00 0.00 73 1012.4
20260505192033 52 63 2.6 3.5 0.00 0.00 0.00 72 1012.4
20260505191333 52 89 1.7 7.0 0.00 0.00 0.00 72 1012.3
20260505190753 52 65 0.9 6.1 0.00 0.00 0.00 72 1012.2
20260505190633 52 65 0.9 6.1 0.00 0.00 0.00 72 1012.2
20260505185933 52 65 0.9 3.5 0.00 0.00 0.00 73 1012.2
20260505185233 52 57 0.0 3.5 0.00 0.00 0.00 74 1012.2
20260505184533 52 26 0.0 3.5 0.00 0.00 0.00 74 1012.2
20260505183833 52 355 0.0 2.6 0.00 0.00 0.00 74 1012.1
20260505183133 52 11 0.0 0.0 0.00 0.00 0.00 74 1012.1
20260505182433 52 23 0.0 0.0 0.00 0.00 0.00 75 1012.1
20260505181733 52 52 0.0 0.0 0.00 0.00 0.00 75 1012.0
20260505181033 52 275 0.0 0.0 0.00 0.00 0.00 75 1012.2
20260505180333 52 41 0.0 0.0 0.00 0.00 0.00 76 1012.1
20260505175633 52 80 0.0 2.6 0.00 0.00 0.00 76 1012.1
20260505174933 52 294 0.9 3.5 0.00 0.00 0.00 76 1012.2
20260505174233 52 71 0.9 3.5 0.00 0.00 0.00 76 1012.2
20260505173533 52 73 0.9 2.6 0.00 0.00 0.00 76 1012.2
20260505172909 52 5 0.9 3.5 0.00 0.00 0.00 75 1012.2
20260505172834 52 5 0.9 3.5 0.00 0.00 0.00 75 1012.2
20260505172134 52 258 0.9 1.7 0.00 0.00 0.00 75 1012.3
20260505171434 52 355 1.7 3.5 0.00 0.00 0.00 75 1012.3
20260505170734 52 40 1.7 4.3 0.00 0.00 0.00 74 1012.3
20260505170111 52 75 0.9 3.5 0.00 0.00 0.00 74 1012.4
20260505170034 52 75 0.9 3.5 0.00 0.00 0.00 74 1012.4
20260505165334 52 89 1.7 6.1 0.00 0.00 0.00 74 1012.4
20260505164800 52 20 1.7 7.0 0.00 0.00 0.00 74 1012.4
20260505164634 52 20 1.7 7.0 0.00 0.00 0.00 74 1012.4
20260505163934 52 59 1.7 5.2 0.00 0.00 0.00 73 1012.4
20260505163344 53 38 1.7 4.3 0.00 0.00 0.00 73 1012.4
20260505163234 53 38 1.7 4.3 0.00 0.00 0.00 73 1012.4
20260505162657 53 66 1.7 3.5 0.00 0.00 0.00 74 1012.4
20260505162534 53 66 1.7 3.5 0.00 0.00 0.00 74 1012.4
20260505161834 53 62 1.7 5.2 0.00 0.00 0.00 74 1012.4
20260505161134 53 350 1.7 2.6 0.00 0.00 0.00 74 1012.4
20260505160434 53 90 1.7 5.2 0.00 0.00 0.00 73 1012.3
20260505152934 52 323 1.7 3.5 0.00 0.00 0.00 74 1012.5
20260505152234 52 49 0.9 4.3 0.00 0.00 0.00 73 1012.5
20260505151534 53 78 1.7 6.1 0.00 0.00 0.00 72 1012.6
20260505150834 53 63 1.7 6.1 0.00 0.00 0.00 72 1012.6
20260505150134 53 75 1.7 6.1 0.00 0.00 0.00 72 1012.5
20260505140534 54 63 1.7 3.5 0.00 0.00 0.00 72 1012.7
20260505130234 53 67 2.6 8.7 0.00 0.00 0.00 73 1012.8
20260505124834 54 319 3.5 7.0 0.00 0.00 0.00 70 1012.6
20260505124135 54 11 1.7 7.0 0.00 0.00 0.00 67 1012.7
20260505123435 54 46 1.7 5.2 0.00 0.00 0.00 66 1012.6
20260505122735 54 46 1.7 4.3 0.00 0.00 0.00 67 1012.7
20260505122035 54 66 1.7 3.5 0.00 0.00 0.00 68 1012.7
20260505121335 54 67 1.7 4.3 0.00 0.00 0.00 70 1012.7
20260505120635 53 63 1.7 4.3 0.00 0.00 0.00 72 1012.7
20260505115935 53 325 1.7 3.5 0.00 0.00 0.00 72 1012.8
20260505115235 53 74 1.7 3.5 0.00 0.00 0.00 73 1012.7
20260505114535 53 33 0.9 2.6 0.00 0.00 0.00 74 1012.7
20260505113835 52 104 1.7 6.1 0.00 0.00 0.00 73 1012.8
20260505113135 52 5 0.9 1.7 0.00 0.00 0.00 74 1012.9
20260505112435 52 44 1.7 2.6 0.00 0.00 0.00 76 1013.0
20260505111735 52 75 1.7 2.6 0.00 0.00 0.00 76 1013.0
20260505111035 52 51 1.7 2.6 0.00 0.00 0.00 76 1013.0
20260505110335 52 65 1.7 4.3 0.00 0.00 0.00 75 1013.1
20260505102135 52 62 2.6 6.1 0.00 0.00 0.00 76 1013.1
20260505101435 52 39 1.7 5.2 0.00 0.00 0.00 75 1013.1
20260505100735 51 348 1.7 4.3 0.00 0.00 0.00 76 1013.1
20260505100035 51 305 1.7 4.3 0.00 0.00 0.00 76 1013.2
20260505095335 51 45 1.7 4.3 0.00 0.00 0.00 77 1013.2
20260505094635 52 333 1.7 6.1 0.00 0.00 0.00 77 1013.2
20260505093935 52 217 1.7 9.6 0.00 0.00 0.00 75 1013.2
20260505093235 53 113 1.7 8.7 0.00 0.00 0.00 75 1013.2
20260505092535 53 322 1.7 5.2 0.00 0.00 0.00 75 1013.2
20260505091835 53 70 1.7 4.3 0.00 0.00 0.00 74 1013.1
20260505091135 53 309 1.7 5.2 0.00 0.00 0.00 73 1013.1
20260505090435 53 75 1.7 5.2 0.00 0.00 0.00 72 1013.0
20260505090040 54 35 1.7 3.5 0.00 0.00 0.00 70 1013.0
20260505085735 54 35 1.7 3.5 0.00 0.00 0.00 70 1013.0
20260505085035 55 51 2.6 5.2 0.00 0.00 0.00 69 1013.1
20260505084335 55 59 1.7 7.0 0.00 0.00 0.00 68 1013.2
20260505083635 55 41 2.6 5.2 0.00 0.00 0.00 67 1013.2
20260505082935 55 29 2.6 7.8 0.00 0.00 0.00 67 1013.2
20260505082235 55 24 2.6 7.0 0.00 0.00 0.00 68 1013.2
20260505081535 55 102 1.7 3.5 0.00 0.00 0.00 70 1013.3
20260505080835 55 80 2.6 4.3 0.00 0.00 0.00 70 1013.4
20260505080135 56 78 2.6 6.1 0.00 0.00 0.00 69 1013.3
20260505075436 55 63 1.7 3.5 0.00 0.00 0.00 70 1013.3
20260505074736 55 9 1.7 5.2 0.00 0.00 0.00 71 1013.2
20260505074036 55 315 1.7 4.3 0.00 0.00 0.00 71 1013.3
20260505073336 55 325 1.7 4.3 0.00 0.00 0.00 72 1013.3
20260505072636 54 78 1.7 4.3 0.00 0.00 0.00 73 1013.3
20260505071936 54 46 1.7 4.3 0.00 0.00 0.00 74 1013.3
20260505071236 53 333 1.7 5.2 0.00 0.00 0.00 74 1013.3
20260505070536 53 323 1.7 3.5 0.00 0.00 0.00 74 1013.3
20260505065836 52 5 1.7 4.3 0.00 0.00 0.00 74 1013.3
20260505065136 52 42 0.9 3.5 0.00 0.00 0.00 75 1013.3
20260505064436 52 277 1.7 3.5 0.00 0.00 0.00 75 1013.4
20260505063736 51 351 1.7 3.5 0.00 0.00 0.00 76 1013.3
20260505063036 51 42 1.7 4.3 0.00 0.00 0.00 77 1013.3
20260505062336 50 316 0.9 3.5 0.00 0.00 0.00 78 1013.2
20260505061636 50 332 0.9 2.6 0.00 0.00 0.00 80 1013.3
20260505060936 49 9 0.9 5.2 0.00 0.00 0.00 81 1013.3
20260505060236 49 316 0.9 2.6 0.00 0.00 0.00 85 1013.3
20260505055536 48 304 0.9 1.7 0.00 0.00 0.00 87 1013.3
20260505054836 47 309 0.0 2.6 0.00 0.00 0.00 89 1013.2
20260505054136 46 32 0.0 0.0 0.00 0.00 0.00 91 1013.3
20260505053436 45 45 0.0 0.0 0.00 0.00 0.00 92 1013.3
20260505052935 45 49 0.0 0.0 0.00 0.00 0.00 92 1013.4
20260505052736 45 49 0.0 0.0 0.00 0.00 0.00 92 1013.4
20260505052036 44 49 0.0 0.0 0.00 0.00 0.00 92 1013.3
20260505051336 44 49 0.0 0.0 0.00 0.00 0.00 91 1013.4
20260505050636 44 49 0.0 0.0 0.00 0.00 0.00 91 1013.4
20260505041736 45 49 0.0 0.0 0.00 0.01 0.00 91 1013.2
20260505041036 45 49 0.0 0.0 0.00 0.01 0.00 91 1013.2
20260505040336 46 49 0.0 0.0 0.00 0.01 0.00 91 1013.2
20260505035636 46 49 0.0 0.9 0.00 0.01 0.00 91 1013.1
20260505034936 46 49 0.0 0.9 0.00 0.01 0.00 91 1013.1
20260505034236 46 49 0.0 0.9 0.00 0.01 0.00 91 1013.0
20260505033536 46 49 0.0 0.0 0.00 0.01 0.00 91 1013.1
20260505032836 46 49 0.0 0.0 0.00 0.01 0.00 91 1013.1
20260505032136 46 49 0.0 0.0 0.00 0.01 0.00 91 1013.1
20260505031437 47 49 0.0 0.0 0.00 0.01 0.00 91 1013.2
20260505030737 47 49 0.0 0.0 0.00 0.01 0.00 91 1013.1
20260505030037 47 49 0.0 0.0 0.00 0.01 0.00 91 1013.1
20260505025337 47 49 0.0 0.0 0.00 0.01 0.00 91 1013.2
20260505024637 47 49 0.0 0.0 0.00 0.01 0.00 91 1013.2
20260505023937 47 49 0.0 0.0 0.00 0.01 0.00 91 1013.1
20260505023237 47 49 0.0 0.0 0.00 0.01 0.00 91 1013.1
20260505022537 47 49 0.0 0.0 0.00 0.01 0.00 92 1013.1
20260505021837 47 49 0.0 0.0 0.00 0.01 0.00 92 1013.3
20260505021137 46 49 0.0 0.0 0.00 0.01 0.00 92 1013.2
20260505020437 46 49 0.0 0.0 0.00 0.01 0.00 92 1013.2
20260505015737 46 49 0.0 0.0 0.00 0.01 0.01 91 1013.2
20260505015037 46 49 0.0 0.0 0.00 0.01 0.01 91 1013.5
20260505014337 46 49 0.0 0.0 0.00 0.01 0.01 91 1013.5
20260505013637 46 49 0.0 0.0 0.00 0.01 0.01 91 1013.5
20260505012937 46 49 0.0 0.0 0.00 0.01 0.01 91 1013.6
20260505012237 46 49 0.0 0.0 0.00 0.01 0.01 91 1013.7